Regional Weather Roundup
Issued by NWS

Home | Current Version | Previous Version | Graphics & Text | Print | Product List | Glossary On
Versions: 1 2 3 4 5 6 7 8 9 10 11 12 13 14 15 16 17 18 19 20 21 22 23 24 25 26 27 28 29 30 31 32 33 34 35 36 37 38 39 40 41 42 43 44 45 46 47 48 49 50
000
ASUS43 KMKX 010821
RWRWI

WISCONSIN REGIONAL WEATHER ROUNDUP
NATIONAL WEATHER SERVICE MILWAUKEE/SULLIVAN WI
300 AM CDT MON SEP 01 2014

NOTE: "FAIR" INDICATES FEW OR NO CLOUDS BELOW 12,000 FEET WITH NO
SIGNIFICANT WEATHER AND/OR OBSTRUCTIONS TO VISIBILITY.

WIZ001-002-006>008-014>016-023>028-010900-
NORTHWEST WISCONSIN

CITY           SKY/WX    TMP DP  RH WIND       PRES   REMARKS
SUPERIOR ARPT  LGT RAIN  62  62  99 SW3       29.57F
ASHLAND        LGT RAIN  66  64  93 S6        29.59F
HAYWARD        RAIN      66  65  96 S6        29.61F FOG
SIREN          RAIN      65  64  96 S5        29.61F
RICE LAKE      LGT RAIN  65  64  94 S5        29.64F
LADYSMITH      HVY RAIN  66  64  96 SW7G28    29.65R
EAU CLAIRE     CLOUDY    66  65  96 SW8       29.64F
MENOMONIE      CLOUDY    67  65  96 S6        29.66S
NEW RICHMOND   RAIN      65  65  99 S6        29.64F
OSCEOLA        CLOUDY    65  65 100 S6        29.65F
$$

WIZ003>005-009-010-017-018-010900-
NORTH CENTRAL WISCONSIN

CITY           SKY/WX    TMP DP  RH WIND       PRES   REMARKS
WOODRUFF       CLOUDY    65  63  92 SE7       29.64F
RHINELANDER    CLOUDY    66  65  96 SE7       29.69F
EAGLE RIVER    CLOUDY    64  64 100 SE3       29.69F
LAND O LAKES   CLOUDY    65  64  96 SE3       29.70F
PHILLIPS       CLOUDY    64  64  98 E5        29.62F
TOMAHAWK       CLOUDY    67  65  95 SE6       29.67F
MEDFORD        LGT RAIN  67  61  81 SW15G24   29.67S
MERRILL        CLOUDY    69  67  94 S9        29.68F
$$

WIZ029-030-035-036-043>047-010900-
CENTRAL WISCONSIN

CITY           SKY/WX    TMP DP  RH WIND       PRES   REMARKS
WAUSAU         CLOUDY    71  66  84 S13       29.68F
MOSINEE        CLOUDY    68  61  77 S10       29.70F
MARSHFIELD     LGT RAIN  69  59  70 SW8       29.70F
STEVENS POINT  CLOUDY    71  58  65 S12G17    29.72F
WAUPACA        CLOUDY    74  71  89 S8        29.74F
WAUTOMA        CLOUDY    74  62  66 SW10      29.75F
WISC RAPIDS    CLOUDY    72  58  61 S10       29.71F
CAMP DOUGLAS   CLOUDY    72  58  62 S14G20    29.70F
$$

WIZ011>013-019>022-031-037>040-048>050-010900-
NORTHEAST WISCONSIN

CITY           SKY/WX    TMP DP  RH WIND       PRES   REMARKS
ANTIGO         CLOUDY    66  65  99 SE13      29.72F FOG
STURGEON BAY   MOCLDY    68  64  88 S12G18    29.76F
GREEN BAY      CLOUDY    70  68  93 S8        29.75F
MANITOWOC      CLOUDY    68  67  96 S7        29.78F FOG
APPLETON       CLOUDY    72  70  94 S14       29.76F
CLINTONVILLE   CLOUDY    70  68  94 S8        29.72F
OSHKOSH        CLOUDY    72  69  90 S12       29.76F
$$

WIZ032>034-041-042-053>061-010900-
SOUTHWEST WISCONSIN

CITY           SKY/WX    TMP DP  RH WIND       PRES   REMARKS
LA CROSSE      LGT RAIN  67  63  87 W23G29    29.64F
SPARTA         LGT RAIN  67  58  73 SW5       29.69F
VIROQUA        PTSUNNY   65  59  81 SW13      29.73F
BOSCOBEL       LGT RAIN  66  63  90 S6        29.75F
PRAIRIE DU CHI LGT RAIN  64  62  91 E16       29.66F
PLATTEVILLE    CLOUDY    65  63  91 SW9       29.83S
$$

WIZ056-057-062-063-064-067-068-010900-
SOUTH CENTRAL WISCONSIN

CITY           SKY/WX    TMP DP  RH WIND       PRES   REMARKS
BARABOO/DELLS  MOCLDY    69  57  65 SW7       29.76F
LONE ROCK      CLOUDY    73  61  65 SW5       29.77F
WATERTOWN      MOCLDY    70  70  99 S7        29.79F
MADISON        MOCLDY    74  68  81 VRB5      29.78F
MIDDLETON      FAIR      72  61  68 W6        29.79F
MONROE         CLOUDY    72  68  88 W7        29.80F
JANESVILLE     CLOUDY    73  70  88 S5        29.78F
$$

WIZ051-052-058>065-066-070>072-010900-
SOUTHEAST WISCONSIN

CITY           SKY/WX    TMP DP  RH WIND       PRES   REMARKS
MILWAUKEE      MOCLDY    72  68  87 S8        29.81F
WAUKESHA       PTCLDY    68  66  94 S5        29.82F
MILWAUKEE/TIMM PTCLDY    72  66  83 S9        29.81F
RACINE         CLEAR     73  69  87 SW9       29.83S
BURLINGTON     CLEAR     69  68  96 S5        29.81F
KENOSHA        CLEAR     72  70  93 SW8       29.82F
FOND DU LAC    CLOUDY    74  68  81 S14       29.78S
SHEBOYGAN      MOCLDY    68  66  93 S9        29.79F
WEST BEND      CLOUDY    70  64  83 S7        29.80F
JUNEAU         MOCLDY    71  68  92 S9        29.81S
$$

LSZ147-162-010900-
LAKE SUPERIOR

STATION/POSITION TIME  TEMP    WIND        PRES    WAVE
                       AIR SEA DIR/SP/G            HT/PER
                 (UTC) (F)     (DEG/KT/KT) (MB)    (FT/S)
W MID LAKE BUOY  0750   63 58  180/ 10/ 12 1002.0R   3/ 5
DEVILS ISLAND    0800   67     190/  6/  8 1000.6F
PORT WING        0740   65     280/  8/ 10 1001.7F
SAXON HARBOR     0740   68     190/  3/  8 1002.0F
$$

LMZ867-665-643>646-010900-
LAKE MICHIGAN

STATION/POSITION TIME  TEMP    WIND        PRES    WAVE
                       AIR SEA DIR/SP/G            HT/PER
                 (UTC) (F)     (DEG/KT/KT) (MB)    (FT/S)
N MID LAKE BUOY  0750   67 65  180/ 12/ 14 1008.5F   1/ 3
NORTHPORT PIER   0700   65     150/  8/ 13 1008.8F
KEWAUNEE LAKESHO 0800   61     180/ 11/ 12 1007.3F
SHEBOYGAN LAKESH 0800   70 52  180/ 15/ 16 1008.6F
ATWATER BUOY     0800   71     170/ 10/ 14 1010.2F
MILWAUKEE LAKESH 0800   73     190/  6/  8   N/A
S MID LAKE BUOY  0750   72 70  180/ 14/ 17 1009.8F   2/ 3
KENOSHA   LAKESH 0800   74     210/  9/ 12 1009.5S
$$

TC  - TEMPERATURE IN CELSIUS
VSB - VISIBILITY IN STATUTE MILES
WCI - WIND CHILL INDEX
HX  - HEAT INDEX




USA.gov is the U.S. government's official web portal to all federal, state and local government web resources and services.